Regional Weather Roundup
Issued by NWS Charleston, SC

Home | Current Version | Previous Version | Text Only | Print | Product List | Glossary On
Versions: 1 2 3 4 5 6 7 8 9 10 11 12 13 14 15 16 17 18 19 20 21 22 23 24 25 26 27 28 29 30 31 32 33 34 35 36 37 38 39 40 41 42 43 44 45 46 47 48 49 50
000
ASUS42 KCHS 270525
RWRCHS

REGIONAL WEATHER ROUNDUP
NATIONAL WEATHER SERVICE CHARLESTON SC
1200 AM EST TUE JAN 27 2015

NOTE: "FAIR" INDICATES FEW OR NO CLOUDS BELOW 12,000 FEET WITH NO
SIGNIFICANT WEATHER AND/OR OBSTRUCTIONS TO VISIBILITY.

NOT ALL STATIONS ARE QUALITY CONTROLLED BY THE NATIONAL
WEATHER SERVICE. USE DATA WITH CAUTION...ESPECIALLY
DEWPOINT OBSERVATIONS.

SCZ027-030-031-034>040-042>050-270600-
...SOUTHEAST SOUTH CAROLINA...

CITY           SKY/WX    TMP DP  RH WIND       PRES   REMARKS
N CHARLESTON   PTCLDY    42  31  64 W14G21    29.80R
WATERFRONT PRK   N/A     43 N/A N/A W12G20      N/A
MOUNT PLEASANT MIX PCPN N/A N/A N/A W12G17    29.78S
PINOPOLIS      NOT AVBL
MONCKS CORNER  FAIR      43  32  65 CALM      29.78F
SUMMERVILLE    NOT AVBL
BEAUFORT MCAS  PTCLDY    41  30  65 W13G21    29.84S
BEAUFORT ARPT  FAIR      41  32  70 W15G23    29.83F
HILTON HEAD IS CLEAR     43  32  65 W13G20    29.86S
WALTERBORO     PTCLDY    43  30  61 W10G18    29.83F
ALLENDALE      CLOUDY    39  30  70 NW7       29.84S WCI  34

...SOUTHERN MIDLANDS AND PEE DEE...

CITY           SKY/WX    TMP DP  RH WIND       PRES   REMARKS
GEORGETOWN     NOT AVBL
KINGSTREE      NOT AVBL
ORANGEBURG     MOCLDY    41  29  62 W12       29.81S
BARNWELL       CLOUDY    39  32  75 W7        29.84F WCI  34
AIKEN          FAIR      37  28  70 W9        29.85F WCI  31
MANNING        NOT AVBL
COLUMBIA       CLOUDY    44  24  45 W9        29.81S
SUMTER         CLOUDY    42  26  54 W12       29.76S
FLORENCE       CLOUDY    47  30  51 NW16G22   29.73S
MYRTLE BEACH   CLOUDY    46  43  87 NW6       29.73S
N MYRTLE BEACH RAIN      46  42  86 W9G18     29.70R FOG

$$

GAZ063-065-086>088-099>101-113>116-118-119-134>141-150-270600-
...SOUTHEAST GEORGIA...

CITY           SKY/WX    TMP DP  RH WIND       PRES   REMARKS
SAVANNAH ARPT  PTCLDY    40  29  64 W12       29.88S WCI  33
HUNTER AAF     PTCLDY    40  30  66 W9        29.85S WCI  34
FORT STEWART   CLEAR     40  30  65 W15       29.88S WCI  32
STATESBORO     CLOUDY    40  32  73 W10       29.88S WCI  33
SYLVANIA       MOCLDY    39  32  76 NW12      29.87S WCI  32
CLAXTON        FAIR      39  32  75 W7G17     29.89F WCI  34

...CSRA...CENTRAL AND FAR SOUTHEAST GEORGIA...

CITY           SKY/WX    TMP DP  RH WIND       PRES   REMARKS
THOMSON        PTCLDY    38  31  76 W7        29.91F WCI  32
AUGUSTA-BUSH   CLOUDY    40  26  57 NW9       29.87R WCI  34
AUGUSTA-DANIEL CLOUDY    40  27  59 VRB7      29.86S WCI  35
SWAINSBORO     FAIR      39  25  56 W9G21     29.90S WCI  33
VIDALIA        CLEAR     37  32  81 W12G21    29.91S WCI  30
EASTMAN        CLOUDY    39  33  79 W6        29.98R WCI  35
HAZLEHURST     MOCLDY    40  34  77 W7        29.94R WCI  36
ALMA           PTCLDY    40  32  73 W12       29.94S WCI  33
WAYCROSS       PTCLDY    44  36  73 W9        29.95R
JESUP          FAIR      43  34  70 NW12      29.93S
BAXLEY         FAIR      41  32  70 NW9G17    29.93R
BRUNSWICK      CLEAR     43  32  65 W14G22    29.92R
SAINT SIMONS   CLEAR     44  33  65 W13G20    29.91S

$$

SCZ027-028-034-036>038-045-046-048>050-GAZ119-141-270600-
...LAKE AND SUPPLEMENTAL COASTAL OBSERVATIONS...

STATION/POSITION TIME  TEMP    WIND        PRES    WAVE   SWELL
                       AIR SEA DIR/SP/G            HT/PER HT/PER/DIR
                 (UTC) (F)     (DEG/KT/KT) (MB)    (FT/S) (FT/S/D)
UPR LAKE MARION  NOT AVBL
WINYAH BAY       0500   47     270/ 11     1005.0S
LAKE MURRAY      0500   42     300/  6/ 12 1009.1S
ACE BASIN NERRS  NOT AVBL
FORT PULASKI     0500   43 53  280/ 19/ 23 1011.6F
SAPELO ISLAND    0500   44     290/ 14     1012.0S

$$

ANZ835-935-AMZ111-154-330-350-352-354-370-450-454-472-270600-
...C-MAN AND BUOY OBSERVATIONS...

STATION/POSITION TIME  TEMP    WIND        PRES    WAVE   SWELL
                       AIR SEA DIR/SP/G            HT/PER HT/PER/DIR
                 (UTC) (F)     (DEG/KT/KT) (MB)    (FT/S) (FT/S/D)
BUOY 41004       0500   51 68  280/ 27/ 33 1006.4R   8/ 7   2/11
BUOY 41008       0500   47 55  300/ 21/ 25 1010.9R   5/ 5
FOLLY BEACH CMAN 0500   42     280/  9/ 12 1009.0F
CAPERS NEARSHORE 0400   48     100/ 21/ 27   N/A
FRIPP NEARSHORE  NOT AVBL


STATION/POSITION TIME  TEMP    WIND        PRES    WAVE   SWELL
                       AIR SEA DIR/SP/G            HT/PER HT/PER/DIR
                 (UTC) (F)     (DEG/KT/KT) (MB)    (FT/S) (FT/S/D)
5E ST. MARYS GA  0500      58                N/A     3/ 4
FRYING PAN BUOY  0500   53 67  310/ 21/ 25 1004.1S   7/ 6
BUOY 41025       0500   49 69  330/ 23/ 29 1000.2R   5/ 6   2/ 60/10
CAPE LOOKOUT NC  0500   47     310/ 13/ 18 1002.2R
BUOY 41002       0351   63 72  280/ 29/ 37 1000.9F  14/10   8/250/10
BUOY 41010       0500   65 76  280/ 25/ 33 1009.1F  11/ 9
ST AUGUSTINE FL  0500   47     290/ 12/ 15 1013.9R


$$


USA.gov is the U.S. government's official web portal to all federal, state and local government web resources and services.